"資料日期","基金數量","基金規模"
"2008/02/29","0","0"
"2008/03/22","0","0"
"2008/04/26","0","0"
"2008/10/06","0","0"
"2008/11/25","0","0"
"2009/01/31","0","0"
"2009/02/28","0","0"
"2009/03/31","0","0"
"2009/04/30","0","0"
"2009/05/31","0","0"
"2009/06/30","0","0"
"2009/07/31","0","0"
"2009/08/31","0","0"
"2009/09/30","0","0"
"2009/10/31","0","0"
"2009/11/30","0","0"
"2009/12/31","0","0"
"2010/01/31","0","0"
"2010/02/28","0","0"
"2010/03/31","0","0"
"2010/04/30","0","0"
"2010/05/31","0","0"
"2010/06/30","0","0"
"2010/07/31","0","0"
"2010/08/31","0","0"
"2010/09/30","0","0"
"2010/10/31","0","0"
"2010/11/30","0","0"
"2010/12/31","0","0"
"2011/01/31","0","0"
"2011/02/28","0","0"
"2011/03/31","0","0"
"2011/04/30","0","0"
"2011/05/31","0","0"
"2011/06/30","0","0"
"2011/07/31","0","0"
"2011/08/31","0","0"
"2011/09/30","0","0"
"2011/10/31","0","0"
"2011/11/30","0","0"
"2011/12/31","0","0"
"2012/01/31","0","0"
"2012/02/29","0","0"
"2012/04/30","1","375562704"
"2012/05/31","1","385826707"
"2012/06/30","1","388356440"
"2012/07/31","1","381166411"
"2012/08/31","1","441803999"
"2012/09/30","1","471776678"
"2012/10/31","1","463039368"
"2012/11/30","1","430807866"
"2012/12/31","1","434853749"
"2013/01/31","1","408008788"
"2013/02/28","1","427101471"
"2013/03/31","1","421167569"
"2013/04/30","1","405010955"
"2013/05/31","1","388846446"
"2013/06/30","1","290478339"
"2013/07/31","1","332437988"
"2013/08/31","1","350629725"
"2013/09/30","1","344544558"
"2013/10/31","1","372201604"
"2013/11/30","1","379752114"
"2013/12/31","1","266670609"
"2014/01/31","1","223959164"
"2014/02/28","1","208476338"
"2014/03/31","1","212256889"
"2014/04/30","1","211448367"
"2014/05/31","1","194057021"
"2014/06/30","1","171000658"
"2014/07/31","1","187788333"
"2014/08/31","1","167628392"
"2014/09/30","1","173261810"
"2014/10/31","1","174960764"
"2014/11/30","1","179114734"
"2014/12/31","1","155698044"
"2015/01/31","1","191199702"
"2015/02/28","1","248663662"
"2015/03/31","1","257548749"
"2015/04/30","1","325420384"
"2015/05/31","1","349786767"
"2015/06/30","1","399786665"
"2015/07/31","1","436070851"
"2015/08/31","1","481950543"
"2015/09/30","1","405593725"
"2015/10/31","1","446451317"
"2015/11/30","1","455345820"
"2015/12/31","1","471924974"
"2016/01/31","1","466636770"
"2016/02/29","1","448101059"
"2016/03/31","2","686534825"
"2016/04/30","2","673227635"
"2016/05/31","2","706299612"
"2016/06/30","2","724542406"
"2016/07/31","2","712742793"
"2016/08/31","2","715724357"
"2016/09/30","2","645431303"
"2016/10/31","2","652976335"
"2016/11/30","2","576569280"
"2016/12/31","2","524317673"
"2017/01/31","2","559503013"
"2017/02/28","2","538996921"
"2017/03/31","2","533346403"
"2017/04/30","2","516202625"
"2017/05/31","2","484275979"
"2017/06/30","2","480036136"
"2017/07/31","2","470450784"
"2017/08/01","2","0"
